date,batt_volt,AirTemp_C,Solar_kW,RH,Manual_BP,StationID,WS_ms,PTemp,WS_15min_max,Prog_Sig,Solar_Raw,Bar_mbar,Solar_MJ,Max_WS_2min,Pressure_Raw,Rain_mm,WD_15min_ave,Max_AirTemp_1min,WindDir,WS_15min_med,WS_15min_ave,Elevation_Correction
2022-04-01T00:12:54Z,13.53919,2.551739,0.0,93.24734,0,1156,5.096,3.826946,5.586,43690,0.0,1007.658,0.0,5.312,1005.857,0,104.067441464,2.654,106.6325,4.1552,4.09906745562,1.80078
2022-04-01T00:27:55Z,13.53919,2.44994,0.0,93.79027,0,1156,5.1352,3.741093,6.1936,43690,0.0,1007.658,0.0,4.547,1005.857,0,104.599395744,2.518,108.343,4.0964,4.13165680473,1.80078
2022-04-01T00:42:56Z,13.54472,2.348141,0.0,94.29926,0,1156,3.5672,3.655243,5.7036,43690,0.0,1007.658,0.0,5.076,1005.857,0,110.210011058,2.552,128.1469,3.8416,3.80332781065,1.80078
2022-04-01T00:57:57Z,13.54472,2.382072,0.0,94.67252,0,1156,3.1948,3.591984,5.8996,43690,0.0,1007.658,0.0,5.606,1005.857,0,107.696145145,2.484,105.3315,4.018,3.92521893491,1.80078
2022-04-01T01:12:58Z,13.54472,2.551739,0.0,94.97792,0,1156,4.5472,3.549057,6.1348,43690,0.0,1007.495,0.0,5.547,1005.694,0,108.681107471,2.586,108.9694,4.4296,4.34435739645,1.80078
2022-04-01T01:27:57Z,13.54472,2.348141,0.0,95.11366,0,1156,4.704,3.526466,6.566,43690,0.0,1007.495,0.0,5.429,1005.694,0,106.230818779,2.484,111.1377,4.4688,4.41266745562,1.80078
2022-04-01T01:42:58Z,13.54472,2.246342,0.0,95.35118,0,1156,4.1552,3.485798,5.292,43690,0.0,1007.495,0.0,5.272,1005.694,0,109.38806269,2.382,97.04374,3.8808,3.77015857988,1.80078
2022-04-01T01:57:57Z,13.54472,2.44994,0.0,95.55478,0,1156,5.5664,3.463207,7.5852,43690,0.0,1007.495,0.0,5.253,1005.694,0,110.685752595,2.586,102.2236,4.1748,4.27975857988,1.80078
2022-04-01T02:12:56Z,13.54472,2.348141,0.0,95.65658,0,1156,5.4488,3.463207,7.0756,43690,0.0,1007.006,0.0,5.488,1005.205,0,111.650510804,2.416,108.5117,4.6844,4.74157633136,1.80078
2022-04-01T02:27:56Z,13.54472,2.416008,0.0,95.82624,0,1156,4.2532,3.463207,6.1544,43690,0.0,1007.006,0.0,5.664,1005.205,0,111.447121002,2.518,100.3685,4.1944,4.16691360947,1.80078
2022-04-01T02:42:56Z,13.54472,2.382072,0.0,95.82624,0,1156,3.3908,3.463207,7.114799,43690,0.0,1007.006,0.0,4.998,1005.205,0,109.972687387,2.518,102.6813,4.7824,4.71629348521,1.80078
2022-04-01T02:57:56Z,13.55024,2.483871,0.0,95.9959,0,1156,3.4888,3.442875,6.7424,43690,0.0,1007.006,0.0,6.742,1005.205,0,113.743055833,2.484,87.7923,3.7436,3.90991005917,1.80078
2022-04-01T03:12:56Z,13.55024,2.44994,0.0,96.13164,0,1156,7.271599,3.442875,10.0744,43690,0.0,1005.051,0.0,8.37,1003.251,0,102.40428449,2.518,92.65895,6.3308,6.30226972781,1.80078
2022-04-01T03:27:57Z,13.55024,2.382072,0.0,96.16558,0,1156,6.487599,3.442875,8.7612,43690,0.0,1005.051,0.0,8.51,1003.251,0,104.923254405,2.518,92.56258,5.7232,5.75288989349,1.80078
2022-04-01T03:43:02Z,13.54472,2.483871,0.0,96.23344,0,1156,7.859599,3.42028,9.329599,43690,0.0,1005.051,0.0,8.269999,1003.251,0,102.325701467,2.518,103.5969,6.3308,6.42972222941,1.80078
2022-04-01T03:58:01Z,13.54472,2.483871,0.0,96.4031,0,1156,7.1932,3.442875,9.525599,43690,0.0,1005.051,0.0,8.599999,1003.251,0,99.95943846,2.654,107.018,7.1736,7.1366033787,1.80078
2022-04-01T04:13:01Z,13.54472,2.517803,0.0,96.5049,0,1156,7.448,3.485798,9.212,43690,0.0,1004.563,0.0,8.17,1002.762,0,101.386706937,2.721,105.5001,7.271599,7.22161404734,1.80078
2022-04-01T04:28:00Z,13.53366,2.687469,0.0,96.57276,0,1156,8.427999,3.526466,9.4276,43690,0.0,1004.563,0.0,9.45,1002.762,0,102.237001793,2.789,99.95891,7.663599,7.61280215976,1.80078
2022-04-01T04:42:58Z,13.54472,2.721401,0.0,96.67456,0,1156,8.036,3.591984,9.9764,43690,0.0,1004.563,0.0,9.9,1002.762,0,101.080935033,2.857,92.15302,7.8008,7.74663888166,1.80078
2022-04-01T04:58:02Z,13.53919,2.958931,0.0,96.74242,0,1156,8.192799,3.655243,9.0356,43690,0.0,1004.563,0.0,8.41,1002.762,0,101.217528033,3.027,101.2358,7.4186,7.27390574706,1.80078
2022-04-01T05:13:01Z,13.53919,3.026798,0.0,96.77636,0,1156,7.9576,3.741093,10.3684,43690,0.0,1003.341,0.0,9.719999,1001.54,0,97.1715935259,3.027,108.2708,9.0356,8.94084708876,1.80078
2022-04-01T05:28:04Z,13.53366,3.196461,0.0,96.8103,0,1156,8.918,3.826946,10.6428,43690,0.0,1003.341,0.0,9.55,1001.54,0,96.3843582504,3.196,91.38206,8.486799,8.41670094706,1.80078
2022-04-01T05:43:02Z,13.53366,3.264328,0.0,96.9121,0,1156,6.958,3.912796,10.2508,43690,0.0,1003.341,0.0,8.599999,1001.54,0,96.2344347415,3.298,92.08074,8.1144,8.04307428402,1.80078
2022-04-01T05:58:00Z,13.52814,3.332191,0.0,97.0139,0,1156,8.0752,4.041576,9.6824,43690,0.0,1003.341,0.0,9.679999,1001.54,0,97.35431172,3.366,104.3919,7.898799,7.71567318935,1.80078
2022-04-01T06:13:04Z,13.53366,3.332191,0.0,97.04782,0,1156,8.1536,4.107094,9.525599,43690,0.0,1002.69,0.0,8.55,1000.889,0,99.6692715845,3.366,95.04408,7.9674,7.88415746471,1.80078
2022-04-01T06:28:04Z,13.52191,3.874744,0.0,97.18273,0,1156,7.84,4.23587,10.1724,43690,0.0,1002.69,0.0,9.269999,1000.889,0,97.8407295396,3.875,98.12708,8.0752,8.08192633136,1.80078
2022-04-01T06:43:04Z,13.51613,4.041237,0.0,97.24359,0,1156,7.84,4.407574,9.995999,43690,0.0,1002.69,0.0,9.82,1000.889,0,96.6615277789,4.177,87.20707,8.3888,8.26574888166,1.80078
2022-04-01T06:58:03Z,13.50852,4.271721,0.0,97.32994,0,1156,5.586,4.599609,9.2316,43690,0.0,1002.69,0.0,9.019999,1000.889,0,99.7567048733,4.272,96.15379,7.3892,7.16327795858,1.80078
2022-04-01T07:13:01Z,13.50737,4.439568,0.0,97.42782,0,1156,7.5852,4.75098,9.408,43690,0.0,1001.819,0.0,9.33,1000.018,0,96.9678724552,4.439,89.62239,7.742,7.60456783432,1.80078
2022-04-01T07:28:05Z,13.50148,4.369141,0.0,97.42215,0,1156,7.6832,4.922684,10.2508,43690,0.0,1001.819,0.0,9.059999,1000.018,0,100.745513003,4.471,94.43401,8.1144,7.95171979412,1.80078
2022-04-01T07:43:03Z,13.49593,4.403,0.0,97.42202,0,1156,9.329599,5.074051,9.741199,43690,0.0,1001.819,0.0,9.74,1000.018,0,102.93175524,4.539,106.211,6.5268,6.59835726627,1.80078
2022-04-01T07:58:02Z,13.49593,4.403,0.0,97.48986,0,1156,5.6448,5.159904,9.525599,43690,0.0,1001.819,0.0,9.29,1000.018,0,101.716516889,4.539,77.91216,7.8792,7.70291574556,1.80078
2022-04-01T08:13:06Z,13.49593,4.47084,0.0,97.48986,0,1156,9.760799,5.225422,10.2508,43690,0.0,999.6706,0.0,10.04,997.8698,0,100.715744741,4.573,99.27478,7.653799,7.43946810588,1.80078
2022-04-01T08:28:05Z,13.48488,4.843975,0.0,97.65946,0,1156,6.5072,5.311276,10.7016,43690,0.0,999.6706,0.0,10.58,997.8698,0,97.1394049705,4.98,90.24323,8.2908,8.13411579882,1.80078
2022-04-01T08:43:03Z,13.49041,4.74221,0.0,97.69338,0,1156,7.7812,5.440052,10.6624,43690,0.0,999.6706,0.0,8.309999,997.8698,0,100.029515335,4.776,114.4719,7.4088,7.26046611834,1.80078
2022-04-01T08:58:07Z,13.48488,5.115345,0.0,97.69338,0,1156,8.682799,5.52816,10.1136,43690,0.0,999.6706,0.0,9.979999,997.8698,0,97.9157612562,5.149,105.1513,8.2908,8.25851740588,1.80078
2022-04-01T09:13:06Z,13.47936,6.166908,0.0,97.96475,0,1156,8.0752,5.699864,11.0348,43690,0.0,997.7982,0.0,9.92,995.9974,0,97.2910934326,6.167,100.4067,9.408,9.22568494083,1.80078
2022-04-01T09:28:06Z,13.46831,6.675728,0.0,98.10043,0,1156,6.8208,6.113308,9.8392,43690,0.0,997.7982,0.0,8.599999,995.9974,0,99.0261398147,6.777001,105.7775,7.5852,7.4716590355,1.80078
2022-04-01T09:43:04Z,13.46279,5.997299,0.0004825874,98.03259,0,1156,8.5848,6.461231,11.3092,43690,0.03378112,997.7982,2.412937e-06,10.56,995.9974,0,94.7383717596,6.133,89.78564,8.212401,8.09016075148,1.80078
2022-04-01T09:58:09Z,13.45699,6.74097,0.001447607,98.19674,0,1156,8.427999,6.612598,12.0736,43690,0.1013325,997.7982,7.238035e-06,8.86,995.9974,0,91.3023335745,6.809001,106.4219,8.2613995,8.3636657,1.80078
2022-04-01T10:13:07Z,13.4496,6.126083,0.0004825274,98.11968,0,1156,7.8792,6.831753,10.6232,43690,0.03377692,997.5193,2.412637e-06,8.88,995.7185,0,95.8053082471,6.16,96.80372,7.35,7.3530151716,1.80078
2022-04-01T10:28:07Z,13.44393,6.939186,0.002412636,98.2874,0,1156,7.546,6.962788,9.4864,43690,0.1688845,997.5193,1.206318e-05,7.977,995.7185,0,96.5803758992,6.871,97.57246,7.7224,7.50564008876,1.80078
2022-04-01T10:43:07Z,13.43818,7.548122,0.0053078,98.35203,0,1156,6.7228,7.224858,8.643599,43690,0.371546,997.5193,2.6539e-05,7.566001,995.7185,0,98.1031927887,7.888001,87.5523,7.252,7.15539150888,1.80078
2022-04-01T10:58:06Z,13.41982,8.01667,0.007720437,98.47486,0,1156,4.1356,7.64056,6.86,43690,0.5404306,997.5193,3.860218e-05,6.409,995.7185,0,99.401345505,7.949,97.50842,4.7628,4.76790295266,1.80078
2022-04-01T11:13:05Z,13.40852,8.151928,0.02316053,98.54191,0,1156,3.1556,8.038189,5.1352,43690,1.621237,997.0627,0.0001158026,3.842,995.262,0,98.2957317334,8.22,88.02171,3.4692,3.46827218935,1.80078
2022-04-01T11:28:06Z,13.403,8.016289,0.03087789,98.50799,0,1156,2.548,8.390629,4.0376,43690,2.161453,997.0627,0.0001543895,3.43,995.262,0,96.4351139475,8.08,98.27807,2.9792,2.93478106509,1.80078
2022-04-01T11:43:06Z,13.39747,8.423206,0.03859769,98.60973,0,1156,0.784,8.657222,3.2928,43690,2.701838,997.0627,0.0001929885,2.92,995.262,0,111.058454289,8.66,93.29435,2.0776,1.94944615266,1.80078
2022-04-01T11:58:07Z,13.38643,9.744301,0.03569848,98.84434,0,1156,1.1564,8.98933,2.5676,43690,2.498894,997.0627,0.0001784924,1.764,995.262,0,143.073388825,9.679999,242.7993,0.9995999,1.03288519822,1.80078
2022-04-01T12:13:07Z,13.37189,9.393131,0.04244827,98.78626,0,1156,2.1364,9.436665,3.038,43690,2.971379,995.9649,0.0002122414,2.744,994.1642,0,212.300112777,9.559999,210.848,2.0972,2.00824615148,1.80078
2022-04-01T12:28:08Z,13.36536,9.288266,0.05884846,98.74602,0,1156,4.3512,9.793629,4.704,43690,4.119392,995.9649,0.0002942423,4.371,994.1642,0,225.053209179,9.53,231.8698,3.2144,3.26600946746,1.80078
2022-04-01T12:43:08Z,13.36533,8.644089,0.07331939,98.7119,0,1156,6.1544,9.92918,8.5848,43690,5.132357,995.9649,0.0003665969,6.978,994.1642,0,253.804729613,8.71,262.2669,6.1348,6.1150839645,1.80078
2022-04-01T12:58:08Z,13.37085,8.169514,0.08007249,98.64411,0,1156,7.8008,9.816219,8.0948,43690,5.605074,995.9649,0.0004003624,7.272,994.1642,0,259.285351069,8.269999,246.4784,6.4484,6.42879992308,1.80078
2022-04-01T13:13:08Z,13.38189,7.762734,0.07138993,98.61022,0,1156,6.6836,9.569958,10.8388,43690,4.997295,995.7534,0.0003569496,8.33,993.9527,0,256.048388021,7.932,246.695,8.0164,7.96096313609,1.80078
2022-04-01T13:28:08Z,13.38741,7.186462,0.07138993,98.50851,0,1156,6.9384,9.368885,9.0356,43690,4.997295,995.7534,0.0003569496,8.25,993.9527,0,254.910327718,7.22,240.7743,7.056,7.09508389941,1.80078
2022-04-01T13:43:09Z,13.39359,7.157112,0.108532,98.58582,0,1156,8.82,9.079701,8.8396,43690,7.597239,995.7534,0.00054266,7.82,993.9527,0,255.186660167,7.122,246.8632,7.271599,7.20618920118,1.80078
2022-04-01T13:58:10Z,13.39553,6.892238,0.1152851,98.59915,0,1156,7.1344,8.96674,10.094,43690,8.069956,995.7534,0.0005764254,8.979999,993.9527,0,258.720517054,7.13,268.0331,7.4088,7.43489452071,1.80078
2022-04-01T14:13:10Z,13.39136,6.759289,0.1041914,98.50306,0,1156,6.9972,8.923817,9.525599,43690,7.2934,996.3451,0.0005209571,8.72,994.5443,0,257.038066615,6.929,261.8852,7.9772,7.8954364497,1.80078
2022-04-01T14:28:09Z,13.39732,7.302963,0.1099816,98.64109,0,1156,6.0564,8.856037,9.8392,43690,7.698714,996.3451,0.0005499082,9.84,994.5443,0,257.969250447,7.405,276.9146,7.9772,7.927098,1.80078
2022-04-01T14:43:10Z,13.39143,7.608074,0.1582248,98.77658,0,1156,6.8404,8.96674,8.486799,43690,11.07573,996.3451,0.0007911238,7.526001,994.5443,0,266.804390304,7.811,258.9781,6.6836,6.61320222485,1.80078
2022-04-01T14:58:11Z,13.38469,7.738968,0.1157687,98.76677,0,1156,7.310799,9.167812,8.1732,43690,8.103811,996.3451,0.0005788436,8.17,994.5443,0,264.011909057,7.943,258.4469,6.0172,6.05802359172,1.80078
2022-04-01T15:13:12Z,13.38364,7.428966,0.1447093,98.72276,0,1156,5.2724,9.258182,8.251599,43690,10.12965,995.7761,0.0007235466,6.037,993.9753,0,260.371799353,7.361001,263.6196,6.076,6.0050224142,1.80078
2022-04-01T15:28:12Z,13.37706,7.767074,0.1476035,98.82258,0,1156,6.4288,9.368885,7.996799,43690,10.33225,995.7761,0.0007380174,7.997,993.9753,0,264.937368208,7.903,291.295,5.8408,5.9033112071,1.80078
2022-04-01T15:43:13Z,13.37651,6.508633,0.1080496,98.6105,0,1156,4.6844,9.436665,7.4872,43690,7.563474,995.7761,0.000540248,6.35,993.9753,0,257.112992302,6.543,245.3479,5.586,5.66532778698,1.80078
2022-04-01T15:58:13Z,13.38742,7.391132,0.1157675,98.78237,0,1156,4.7824,9.278515,6.468,43690,8.103722,995.7761,0.0005788372,6.311,993.9753,0,260.924518341,7.527001,262.2499,4.4296,4.45720236686,1.80078
2022-04-01T16:13:13Z,13.383,6.985962,0.09357869,98.75189,0,1156,2.0972,9.258182,5.4292,43690,6.550508,995.2058,0.0004678934,3.489,993.405,0,260.479700905,7.088,249.5985,3.7828,3.83684497041,1.80078
2022-04-01T16:28:12Z,13.38884,6.243107,0.05933082,98.58868,0,1156,0.4312,9.145222,3.4888,43690,4.153157,995.2058,0.0002966541,2.195,993.405,0,239.313366234,6.278,212.6176,2.2932,2.20413017692,1.80078
2022-04-01T16:43:13Z,13.39115,6.859134,0.08200408,98.80428,0,1156,0.1372,8.923817,3.136,43690,5.740285,995.2058,0.0004100204,2.058,993.405,0,237.067621637,6.995,31.56075,1.4504,1.36051834083,1.80078
2022-04-01T16:58:14Z,13.3916,7.234318,0.07236064,98.84281,0,1156,0.1176,8.878628,1.6464,43690,5.065245,995.2058,0.0003618032,0.96,993.405,0,232.997071325,7.438,249.7532,0.686,0.657469812426,1.80078
2022-04-01T17:13:12Z,13.39157,7.369213,0.1456761,98.87518,0,1156,1.0584,8.944149,2.0776,43690,10.19733,994.6051,0.0007283806,1.058,992.8043,0,197.683535844,7.37,232.3194,0.8133999,0.827049992262,1.80078
2022-04-01T17:28:12Z,13.38521,7.436249,0.1234882,98.83965,0,1156,0.9211999,9.167812,1.7248,43690,8.644177,994.6051,0.0006174412,1.0,992.8043,0,196.306070625,7.504,183.108,0.882,0.858572766272,1.80078
2022-04-01T17:43:14Z,13.37768,7.769398,0.08779035,98.8952,0,1156,0.2744,9.391483,1.3132,43690,6.145325,994.6051,0.0004389518,0.431,992.8043,0,229.985425136,7.803001,279.2014,0.4116,0.474343182249,1.80078
2022-04-01T17:58:15Z,13.37111,7.695774,0.0974376,98.88314,0,1156,1.2936,9.569958,1.3524,43690,6.820632,994.6051,0.000487188,0.02,992.8043,0,194.685041633,8.0,189.2485,0.0196,0.240534911243,1.80078
2022-04-01T18:13:16Z,13.37086,7.796646,0.09550814,98.91533,0,1156,0.8231999,9.660328,2.4108,43690,6.68557,992.2607,0.0004775407,1.784,990.46,0,179.423006692,7.831,59.11055,1.1956,1.21334437041,1.80078
2022-04-01T18:28:16Z,13.37085,8.440701,0.1307207,99.05089,0,1156,0.9408,9.682926,1.3328,43690,9.150452,992.2607,0.0006536037,0.882,990.46,0,102.912760319,8.58,55.28374,0.5096,0.494407094083,1.80078
2022-04-01T18:43:17Z,13.36533,8.576294,0.09550814,99.05089,0,1156,0.7252,9.883999,1.274,43690,6.68557,992.2607,0.0004775407,1.078,990.46,0,149.624555746,8.639999,193.2404,0.6076,0.552859160947,1.80078
2022-04-01T18:58:17Z,13.35981,8.915275,0.04823644,99.15258,0,1156,0.0196,10.08733,1.274,43690,3.376551,992.2607,0.0002411822,1.098,990.46,0,136.542764216,8.849999,50.63866,0.6272,0.590087563905,1.80078
2022-04-01T19:13:17Z,13.35429,8.745785,0.05788372,99.08479,0,1156,0.5684,10.22288,1.2152,43690,4.051861,991.523,0.0002894186,0.9020001,989.7222,0,267.370109041,8.809999,262.0262,0.49,0.43723075858,1.80078
2022-04-01T19:28:18Z,13.35429,9.186462,0.07910775,99.15258,0,1156,0.3136,10.35844,1.2348,43690,5.537543,991.523,0.0003955388,1.235,989.7222,0,108.688667795,9.189999,124.1417,0.5096,0.496378690533,1.80078
2022-04-01T19:43:19Z,13.34325,9.38985,0.04437752,99.22038,0,1156,0.784,10.58436,0.9211999,43690,3.106426,991.523,0.0002218876,0.9210001,989.7222,0,185.377803345,9.49,199.5943,0.0196,0.290752656213,1.80078
2022-04-01T19:58:15Z,13.34325,8.847481,0.056919,99.15258,0,1156,1.666,10.67473,1.6856,43690,3.98433,991.523,0.000284595,1.156,989.7222,0,194.66197871,9.08,164.1184,0.392,0.580883322024,1.80078
2022-04-01T20:13:18Z,13.34877,8.508495,0.07331939,99.08479,0,1156,2.4696,10.65214,3.0184,43690,5.132357,990.7908,0.0003665969,2.313,988.99,0,119.403806186,8.61,97.88376,1.2544,1.32491359941,1.80078
2022-04-01T20:28:20Z,13.35981,5.966122,0.06801338,98.67801,0,1156,3.6848,10.1777,4.0768,43690,4.760936,990.7908,0.0003400669,3.704,988.99,0,97.2359761478,6.136,91.07257,3.136,2.9888260355,1.80078
2022-04-01T20:43:17Z,13.38741,5.559342,0.07428411,98.57632,0,1156,3.3712,9.346294,4.802,43690,5.199888,990.7908,0.0003714206,4.155,988.99,0,92.3119622003,5.763,86.42748,3.822,3.77451666667,1.80078
2022-04-01T20:58:19Z,13.40659,5.366299,0.04148474,98.63271,0,1156,3.038,8.634632,4.41,43690,2.903932,990.7908,0.0002074237,3.685,988.99,0,85.641234594,5.467,76.60122,3.5868,3.48033372781,1.80078
2022-04-01T21:13:17Z,13.41398,6.083279,0.02122868,98.74504,0,1156,2.2148,8.146633,4.7432,43690,1.486008,989.3756,0.0001061434,4.175,987.5748,0,88.0690670262,6.219,82.91734,3.6848,3.5798,1.80078
2022-04-01T21:28:18Z,13.41404,6.490326,0.01254531,98.88096,0,1156,0.8035999,7.97041,2.3128,43690,0.8781714,989.3756,6.272653e-05,1.823,987.5748,0,74.1764557029,6.592,107.8362,1.3132,1.21064999762,1.80078
2022-04-01T21:43:20Z,13.41404,6.592056,0.01061559,98.88096,0,1156,0.0196,7.927486,1.1172,43690,0.7430912,989.3756,5.307794e-05,0.431,987.5748,0,49.1608984065,6.626,55.23024,0.0196,0.258883331548,1.80078
2022-04-01T21:58:19Z,13.41404,6.829426,0.004342743,98.91487,0,1156,0.0196,7.950077,1.3524,43690,0.303992,989.3756,2.171372e-05,0.02,987.5748,0,59.6469693678,6.897,68.15902,0.4606,0.456983325,1.80078
2022-04-01T22:13:19Z,13.41404,6.863334,0.001930053,98.94878,0,1156,0.882,8.015598,1.4504,43690,0.1351037,988.8403,9.650266e-06,0.706,987.0395,0,78.7490001538,7.101,267.7487,0.4116,0.499216661905,1.80078
2022-04-01T22:28:18Z,13.40851,6.015591,0.001447468,98.6775,0,1156,2.7244,8.038189,3.0576,43690,0.1013227,988.8403,7.237338e-06,1.137,987.0395,0,269.394509274,6.694,283.7351,1.078,1.06353332321,1.80078
2022-04-01T22:43:20Z,13.41956,5.642582,0.00048252,98.6775,0,1156,0.49,7.816784,4.3708,43690,0.0337764,988.8403,2.4126e-06,0.784,987.0395,0,239.429128088,5.643,268.6636,0.7056,1.21053333155,1.80078
2022-04-01T22:58:20Z,13.42508,5.574764,0.0,98.74532,0,1156,4.2532,7.552448,4.7628,43690,0.0,988.8403,0.0,3.587,987.0395,0,264.228899273,5.643,257.2034,3.0576,2.96076666488,1.80078
2022-04-01T23:13:19Z,13.43642,5.778221,0.0,98.74532,0,1156,4.5472,7.333302,6.6052,43690,0.0,988.9218,0.0,4.292,987.121,0,266.043292748,5.88,251.0159,3.6064,3.62165748503,1.80078
2022-04-01T23:28:23Z,13.4371,4.764946,0.0,98.58462,0,1156,2.842,7.071232,4.9588,43690,0.0,988.9218,0.0,3.646,987.121,0,254.56081461,4.865,258.0692,3.9396,3.76528757396,1.80078
2022-04-01T23:43:24Z,13.45486,5.039173,0.0,98.62493,0,1156,2.94,6.786564,4.3708,43690,0.0,988.9218,0.0,3.94,987.121,0,260.166941648,5.107,273.2321,2.7636,2.6687499994,1.80078
2022-04-01T23:58:21Z,13.45497,5.244038,0.0,98.66185,0,1156,3.2732,6.67812,4.6648,43690,0.0,988.9218,0.0,4.665,987.121,0,266.506480938,5.346,255.1078,2.9302,2.92215,1.80078
2022-04-02T00:13:26Z,13.45499,5.415428,0.0,98.76754,0,1156,1.4504,6.635197,3.2732,43690,0.0,989.1803,0.0,1.607,987.3795,0,261.645493181,5.551,202.5965,1.5288,1.67922130118,1.80078
2022-04-02T00:28:22Z,13.46171,4.636036,0.0,98.63343,0,1156,1.5484,6.524494,2.2932,43690,0.0,989.1803,0.0,1.705,987.3795,0,217.704642792,4.704,218.4937,0.9799999,1.12186664643,1.80078
2022-04-02T00:43:25Z,13.46258,4.67355,0.0,98.64137,0,1156,1.5876,6.287274,2.1756,43690,0.0,989.1803,0.0,1.548,987.3795,0,205.897182647,4.809,208.9501,1.2936,1.1450343142,1.80078
2022-04-02T00:58:21Z,13.46278,4.945706,0.0,98.6431,0,1156,0.0196,6.156231,2.254,43690,0.0,989.1803,0.0,0.02,987.3795,0,209.667117035,5.014,160.4965,0.4998,0.626849997024,1.80078
2022-04-02T01:13:22Z,13.46278,5.590225,0.0,98.81274,0,1156,0.9211999,6.176563,1.5484,43690,0.0,989.9824,0.0,1.137,988.1817,0,138.229767077,5.59,65.79782,0.9211999,0.806866652381,1.80078
2022-04-02T01:28:26Z,13.45726,5.251011,0.0,98.71098,0,1156,6.879599,6.307606,6.879599,43690,0.0,989.9824,0.0,6.88,988.1817,0,87.2776821166,5.624,252.2089,0.8035999,1.09806389349,1.80078
2022-04-02T01:43:24Z,13.45707,5.081329,0.0,98.71082,0,1156,6.2328,6.350529,11.8776,43690,0.0,989.9824,0.0,8.92,988.1817,0,245.965588452,5.251,247.7048,8.0948,8.2495122426,1.80078
2022-04-02T01:58:26Z,13.45725,6.26865,0.0,98.9145,0,1156,1.0388,6.395718,6.2328,43690,0.0,989.9824,0.0,1.901,988.1817,0,289.125667999,6.269,13.31852,1.862,2.12248283669,1.80078
2022-04-02T02:13:26Z,13.45173,4.671627,0.0,98.67104,0,1156,1.176,6.547085,3.6652,43690,0.0,989.5754,0.0,3.038,987.7746,0,257.680130635,4.875,225.6785,1.0584,1.17588401834,1.80078
2022-04-02T02:28:27Z,13.45683,4.534214,0.0,98.63328,0,1156,0.8428,6.481564,2.7244,43690,0.0,989.5754,0.0,1.019,987.7746,0,252.79982831,4.534,28.80173,0.0196,0.4248213,1.80078
2022-04-02T02:43:27Z,13.46267,5.454239,0.0,98.77817,0,1156,0.9015999,6.350529,1.47,43690,0.0,989.5754,0.0,1.49,987.7746,0,322.799805153,5.454,298.2798,0.8428,0.832710037278,1.80078
2022-04-02T02:58:26Z,13.46278,5.386696,0.0,98.77882,0,1156,4.9784,6.373119,6.2916,43690,0.0,989.5754,0.0,5.704,987.7746,0,268.734257769,5.455,243.7554,2.1756,2.75884496923,1.80078
2022-04-02T03:13:25Z,13.46276,4.742191,0.0,98.71098,0,1156,9.760799,6.330196,13.3868,43690,0.0,989.5754,0.0,12.03,987.7746,0,244.697079122,4.878,246.4287,10.3488,9.6565371716,1.80078
2022-04-02T03:28:25Z,13.47383,4.301216,0.0,98.64314,0,1156,8.5848,6.113308,10.094,43690,0.0,989.5754,0.0,9.62,987.7746,0,244.602996332,4.437,248.0905,8.7612,8.78335130178,1.80078
2022-04-02T03:43:30Z,13.48488,3.995922,0.0,98.60922,0,1156,3.0772,5.851238,9.3492,43690,0.0,989.5754,0.0,4.724,987.7746,0,254.151527859,4.03,263.0949,6.3014,6.04579283529,1.80078
2022-04-02T03:58:29Z,13.48488,3.995922,0.0,98.64314,0,1156,1.96,5.65694,4.3708,43690,0.0,989.5754,0.0,3.822,987.7746,0,264.247653195,4.132,273.0898,2.9988,2.96887810651,1.80078
2022-04-02T04:13:28Z,13.4904,3.928082,0.0,98.64314,0,1156,2.744,5.50557,4.2336,43690,0.0,988.4358,0.0,3.861,986.635,0,282.711963343,4.03,303.0264,2.9988,2.97641656805,1.80078
2022-04-02T04:28:27Z,13.4904,3.758472,0.0,98.54137,0,1156,3.0184,5.397125,7.016799,43690,0.0,988.4358,0.0,4.547,986.635,0,269.192419541,3.86,292.1163,4.0376,4.18906507692,1.80078
2022-04-02T04:43:31Z,13.4904,3.826317,0.0,98.60922,0,1156,3.4104,5.290939,5.7624,43690,0.0,988.4358,0.0,3.802,986.635,0,271.9831475,3.894,292.6461,3.6358,3.65124941176,1.80078
2022-04-02T04:58:28Z,13.4904,3.894158,0.0,98.60922,0,1156,1.764,5.225422,4.1552,43690,0.0,988.4358,0.0,2.352,986.635,0,268.104934526,3.962,278.7255,2.6656,2.60842366864,1.80078
2022-04-02T05:13:27Z,13.4904,5.217091,0.0,98.81274,0,1156,0.8035999,5.225422,4.0964,43690,0.0,987.7844,0.0,4.096,985.9837,0,272.59078766,5.217,328.4592,1.764,1.82871479112,1.80078
2022-04-02T05:28:28Z,13.48488,4.436901,0.0,98.71098,0,1156,5.88,5.41972,8.212401,43690,0.0,987.7844,0.0,6.919,985.9837,0,252.567796611,4.437,231.2798,3.8612,3.85737275444,1.80078
2022-04-02T05:43:28Z,13.48488,3.792396,0.0,98.5753,0,1156,11.3288,5.397125,12.9556,43690,0.0,987.7844,0.0,12.43,985.9837,0,230.251140038,3.86,232.2432,9.8392,9.51226259172,1.80078
2022-04-02T05:58:33Z,13.4904,3.521027,0.0,98.50745,0,1156,12.348,5.225422,13.7984,43690,0.0,987.7844,0.0,12.52,985.9837,0,237.413344963,3.623,245.5376,11.8776,11.8532729412,1.80078
2022-04-02T06:13:31Z,13.49593,3.419262,0.0,98.50745,0,1156,8.4672,5.031128,12.9752,43690,0.0,988.9242,0.0,12.11,987.1234,0,239.669340443,3.521,236.3134,11.1132,11.036307645,1.80078
2022-04-02T06:28:29Z,13.50698,3.453182,0.0,98.50745,0,1156,9.6432,4.879757,12.7008,43690,0.0,988.9242,0.0,11.56,987.1234,0,241.426919042,3.521,238.2642,10.388,10.4168780118,1.80078
2022-04-02T06:43:34Z,13.50698,3.182667,0.0,98.44155,0,1156,10.3684,4.728386,13.524,43690,0.0,988.9242,0.0,12.7,987.1234,0,245.04086711,3.319,258.2832,11.1132,10.9823411294,1.80078
2022-04-02T06:58:32Z,13.51326,3.114788,0.0,98.37363,0,1156,10.8388,4.579277,13.2104,43690,0.0,988.9242,0.0,11.98,987.1234,0,247.083767724,3.251,254.1164,10.8388,10.7726934201,1.80078
2022-04-02T07:13:35Z,13.5193,3.117718,0.0,98.38032,0,1156,9.016,4.4505,11.466,43690,0.0,989.7442,0.0,9.269999,987.9435,0,249.871369939,3.152,244.2583,8.8984,8.92122805294,1.80078
2022-04-02T07:28:33Z,13.52009,2.98439,0.0,98.41967,0,1156,7.9772,4.342056,9.4668,43690,0.0,989.7442,0.0,8.92,987.9435,0,253.675701443,3.188,249.0652,7.6048,7.6783287574,1.80078